CAPE
60 52 41 48 48 30 18 14 2 2 nan nan nan nan nan 3 3 3 11 5 5 2 2 2 2 3 14 42 58 58 66 73 78 78 80 81 78 78 68 58 58 49 55 56 56 50 52 69 69 115 152 171 114 114 109 141 141 199 216 223 223 239 287 442 442 538 510 536 471 471 401 374 368 368 361 384 437 437 453 498 498 523 535 524 524 500
56 52 42 41 41 28 17 15 5 5 3 3 4 4 7 9 12 12 20 21 21 14 11 10 10 10 10 30 59 59 62 67 68 68 73 77 78 78 77 68 68 71 82 89 89 106 117 171 171 123 82 57 53 53 45 95 95 172 175 181 181 191 230 314 314 419 440 477 395 395 375 338 299 299 288 277 288 288 304 339 339 418 454 496 496 470
60 49 39 37 37 25 14 11 10 10 18 19 21 21 25 26 24 24 25 23 23 24 20 13 13 12 8 22 56 56 58 60 63 63 68 69 83 83 87 86 86 90 99 127 127 136 135 104 104 56 30 29 37 37 57 141 141 176 176 174 174 181 191 224 224 274 314 309 273 273 291 296 281 281 256 259 261 261 275 283 283 345 439 475 475 498
70 48 37 29 29 27 13 9 21 21 43 49 59 59 45 33 30 30 22 16 16 13 10 10 10 6 6 12 35 35 54 59 62 62 66 70 86 86 100 109 109 117 135 124 124 97 80 52 52 18 12 22 44 44 78 173 173 213 197 193 193 170 159 169 169 188 217 208 197 197 209 235 217 217 224 299 343 343 382 347 347 341 343 465 465 509
76 49 36 30 30 22 21 28 51 51 74 74 71 71 56 30 23 23 17 11 11 6 4 6 6 4 2 6 25 25 48 61 68 68 70 80 96 96 110 123 123 136 134 101 101 61 38 34 34 20 24 32 45 45 66 115 115 156 172 194 194 190 190 180 180 161 144 128 134 134 148 149 142 142 193 279 392 392 456 418 418 386 329 394 394 464
63 43 34 22 22 22 40 71 110 110 107 69 45 45 26 25 11 11 6 1 1 1 1 2 2 3 2 3 29 29 52 67 77 77 85 93 107 107 122 132 132 130 104 72 72 45 42 47 47 53 48 40 39 39 46 44 44 55 92 135 135 155 173 163 163 147 124 117 103 103 100 102 133 133 172 274 325 325 385 346 346 374 285 315 315 384
55 47 38 30 30 59 100 173 157 157 49 29 23 23 21 16 8 8 2 1 1 1 3 6 6 5 5 13 41 41 65 77 87 87 92 102 117 117 123 117 117 104 94 81 81 73 67 67 67 64 53 38 31 31 26 28 28 29 33 56 56 95 137 145 145 141 137 110 96 96 89 92 111 111 154 213 269 269 284 258 258 250 198 237 237 311
78 66 88 103 103 132 97 46 28 28 23 16 8 8 8 3 9 9 17 24 24 23 20 20 20 20 12 16 26 26 37 47 49 49 65 81 100 100 109 107 107 104 101 97 97 92 96 75 75 42 14 10 8 8 8 13 13 11 22 19 19 26 44 95 95 120 129 137 125 125 100 75 70 70 62 73 93 93 122 140 140 157 137 164 164 221
126 77 118 141 141 87 24 17 33 33 28 21 17 17 13 15 12 12 18 19 19 26 24 25 25 19 14 21 25 25 44 56 51 51 63 46 63 63 87 89 89 102 110 107 107 109 97 70 70 39 31 29 27 27 21 38 38 55 49 45 45 40 41 69 69 104 145 168 173 173 130 86 60 60 51 39 30 30 47 63 63 99 113 151 151 230
138 123 125 94 94 50 20 17 21 21 33 34 33 33 26 24 23 23 32 31 31 27 21 26 26 21 18 25 32 32 42 58 97 97 114 93 107 107 98 85 85 88 118 121 121 116 97 72 72 61 93 119 133 133 56 30 30 27 33 48 48 50 48 58 58 96 130 195 205 205 178 126 86 86 47 25 16 16 12 22 22 45 88 137 137 221
109 120 77 42 42 22 21 19 17 17 25 28 25 25 19 27 54 54 56 49 49 30 17 17 17 22 15 12 16 16 15 13 22 22 67 105 118 118 111 112 112 120 140 138 138 121 105 105 105 111 137 130 73 73 22 0 0 0 3 22 22 49 64 69 69 90 151 199 218 218 193 144 102 102 56 28 15 15 9 10 10 19 55 111 111 143
93 60 40 24 24 21 23 20 19 19 23 24 24 24 30 46 74 74 47 38 38 24 18 20 20 24 20 15 16 16 12 13 31 31 63 102 127 127 147 137 137 130 141 134 134 140 140 151 151 157 125 78 15 15 1 nan nan nan 1 21 21 57 72 79 79 102 115 149 174 174 144 146 97 97 68 25 14 14 7 8 8 15 35 67 67 92
48 35 26 29 29 30 24 22 21 21 26 35 43 43 38 42 47 47 47 26 26 18 18 18 18 22 26 21 25 25 48 95 144 144 159 209 277 277 244 234 234 255 185 175 175 180 170 170 170 133 85 25 0 0 nan nan nan 3 13 40 40 74 95 95 95 93 74 72 79 79 74 94 75 75 49 20 11 11 7 10 10 15 28 47 47 57
32 35 29 27 27 25 27 29 34 34 43 54 47 47 45 39 30 30 22 12 12 16 23 39 39 41 39 79 135 135 185 172 192 192 245 270 262 262 249 235 235 247 235 172 172 134 131 93 93 45 29 8 3 3 4 9 9 18 31 61 61 97 113 111 111 89 68 61 52 52 54 50 42 42 23 13 10 10 10 10 10 13 18 23 23 32
49 33 30 25 25 28 31 37 64 64 64 46 40 40 34 27 20 20 13 15 15 22 29 58 58 88 113 184 318 318 323 246 209 209 187 187 183 183 174 212 212 182 104 80 80 54 40 20 20 8 3 3 4 4 11 19 19 36 41 70 70 100 114 108 108 79 59 47 43 43 35 34 23 23 14 12 13 13 13 12 12 11 12 16 16 20
47 20 25 20 20 28 41 67 73 73 50 34 32 32 26 23 17 17 18 22 22 37 73 108 108 110 157 220 243 243 185 145 95 95 66 44 57 57 80 80 80 44 34 25 25 11 3 5 5 4 3 5 10 10 21 28 28 42 42 56 56 76 89 85 85 72 49 40 36 36 33 26 17 17 13 12 13 13 15 14 14 13 11 11 11 13
30 12 18 20 20 28 62 106 55 55 26 28 27 27 27 28 27 27 21 35 35 52 58 59 59 60 66 46 7 7 8 14 16 16 18 19 14 14 43 32 32 24 19 14 14 4 3 3 3 3 4 11 21 21 29 33 33 38 37 40 40 41 50 57 57 55 49 41 37 37 31 22 16 16 14 15 17 17 17 17 17 15 13 13 13 11
22 11 13 23 23 47 86 93 35 35 34 25 28 28 31 30 25 25 23 37 37 41 30 76 76 51 14 7 2 2 7 17 22 22 21 21 18 18 31 37 37 27 19 13 13 5 9 6 6 4 15 37 40 40 46 39 39 31 26 25 25 29 33 42 42 48 45 45 36 36 28 19 18 18 17 17 18 18 18 19 19 17 16 17 17 15
13 13 21 41 41 77 86 43 20 20 22 19 26 26 31 35 32 32 28 34 34 32 54 65 65 20 5 8 6 6 12 22 19 19 21 29 19 19 21 24 24 24 20 18 18 20 24 22 22 39 45 65 70 70 60 53 53 44 33 29 29 47 57 59 59 54 44 36 25 25 19 17 18 18 17 17 18 18 19 19 19 20 20 19 19 16
20 22 26 54 54 97 71 39 29 29 32 42 49 49 44 49 37 37 29 28 28 50 102 28 28 14 10 13 13 13 17 21 16 16 27 35 25 25 21 24 24 20 17 15 15 20 39 48 48 73 116 92 85 85 88 44 44 26 50 65 65 82 73 60 60 45 23 15 12 12 12 11 13 13 14 14 15 15 17 17 17 19 20 19 19 17
25 29 49 111 111 82 41 40 42 42 59 79 75 75 61 55 32 32 46 83 83 115 100 31 31 20 18 19 20 20 24 19 29 29 46 51 37 37 21 20 20 15 22 42 42 72 135 146 146 130 79 59 64 64 64 45 45 49 48 51 51 54 43 21 21 10 7 3 3 3 3 4 6 6 9 10 12 12 13 13 13 15 18 19 19 18
33 38 88 122 122 73 54 50 80 80 90 113 92 92 73 51 44 44 73 98 98 118 77 38 38 34 27 35 30 30 29 21 49 49 69 50 33 33 20 18 18 32 72 135 135 196 96 7 7 0 1 13 14 14 19 36 36 46 49 44 44 32 24 6 6 1 0 0 0 0 1 2 3 3 6 8 9 9 9 11 11 12 14 15 15 16
40 78 125 110 110 73 76 70 74 74 76 88 103 103 81 76 64 64 80 102 102 102 61 41 41 43 54 46 30 30 20 16 54 54 77 56 35 35 31 78 78 86 28 7 7 0 nan nan nan nan nan 6 15 15 38 57 57 65 50 36 36 26 14 3 3 0 0 1 1 1 1 2 3 3 5 6 8 8 9 10 10 10 12 13 13 13
61 117 115 84 84 78 83 49 34 34 30 58 90 90 107 123 128 128 135 109 109 84 52 56 56 79 70 36 16 16 15 18 36 36 57 58 45 45 56 80 80 41 11 3 3 3 0 nan nan nan nan 13 31 31 52 70 70 60 44 33 33 22 10 3 3 2 2 2 2 2 3 3 3 3 5 6 7 7 8 9 9 10 11 10 10 11
65 85 70 81 81 101 46 19 26 26 15 26 45 45 93 119 118 118 74 63 63 58 56 84 84 84 37 20 3 3 15 16 22 22 50 67 90 90 73 40 40 17 12 6 6 2 2 3 3 7 14 30 42 42 44 46 46 46 37 25 25 12 5 4 4 4 3 3 3 3 2 3 3 3 5 5 6 6 6 8 8 9 9 10 10 11
109 99 114 90 90 106 85 68 59 59 35 21 25 25 52 90 82 82 71 59 59 65 74 67 67 36 11 2 1 1 10 24 38 38 79 61 65 65 34 18 18 11 10 9 9 15 22 32 32 32 27 32 39 39 32 28 28 34 27 13 13 4 3 3 3 3 2 0 0 0 0 1 3 3 4 6 6 6 6 7 7 7 8 9 9 12
160 145 121 97 97 77 58 48 59 59 79 67 47 47 63 91 68 68 56 55 55 92 66 52 52 22 7 1 3 3 14 26 70 70 97 64 35 35 18 13 13 14 23 26 26 29 39 29 29 20 14 7 7 7 23 28 28 33 21 5 5 2 1 1 1 0 nan nan nan nan 0 1 3 3 5 6 6 6 6 7 7 7 8 8 8 12
94 67 51 40 40 30 27 33 42 42 58 79 111 111 100 62 53 53 61 70 70 91 77 31 31 10 1 3 7 7 21 23 38 38 49 50 28 28 23 20 20 24 36 37 37 32 28 16 16 8 4 2 7 7 30 31 31 24 10 2 2 0 0 nan nan nan nan nan 0 0 2 3 5 5 7 6 7 7 6 6 6 6 9 10 10 14
28 22 21 16 16 13 17 28 38 38 51 66 93 93 91 53 44 44 46 82 82 72 41 13 13 6 8 9 15 15 17 15 21 21 45 44 36 36 34 35 35 40 36 20 20 12 11 11 11 12 13 23 44 44 53 32 32 24 12 1 1 nan nan nan nan nan nan 1 3 3 5 7 7 7 8 7 6 6 6 5 5 6 8 12 12 14
2 3 3 5 5 9 15 14 27 27 45 65 82 82 74 43 37 37 47 62 62 41 15 13 13 13 18 19 18 18 12 9 24 24 76 58 36 36 31 26 26 19 14 8 8 9 6 9 9 15 30 61 58 58 45 40 40 30 15 5 5 0 0 0 0 1 2 3 5 5 7 8 8 8 6 6 5 5 6 6 6 8 10 13 13 13
nan nan nan 1 1 5 7 9 22 22 44 65 74 74 67 50 60 60 69 34 34 15 7 16 16 20 24 31 26 26 10 10 36 36 91 47 33 33 27 22 22 18 18 13 13 10 7 6 6 17 47 47 38 38 33 25 25 14 9 7 7 5 3 2 2 3 4 6 7 7 7 4 3 3 3 3 4 4 5 5 5 8 9 13 13 14
1 2 3 4 4 6 6 8 9 9 15 33 54 54 82 119 123 123 77 55 55 32 28 33 33 38 41 36 27 27 16 16 34 34 62 38 32 32 33 26 26 23 23 30 30 27 11 8 8 9 7 7 6 6 6 7 7 12 16 10 10 3 4 6 6 9 11 13 5 5 1 0 0 0 1 2 3 3 4 5 5 8 7 1 1 nan
6 6 6 8 8 9 11 12 20 20 25 37 56 56 87 115 94 94 51 50 50 43 38 33 33 35 41 37 30 30 23 18 43 43 55 30 26 26 26 21 21 20 22 20 20 21 16 14 14 8 8 6 6 6 6 8 8 16 18 8 8 1 4 5 5 7 15 15 5 5 3 2 nan nan nan nan 1 1 3 3 3 4 1 nan nan nan
8 11 12 12 12 11 17 23 24 24 23 31 48 48 64 58 41 41 39 39 39 43 31 41 41 36 48 33 30 30 24 17 44 44 58 30 26 26 24 21 21 20 18 19 19 21 17 17 17 9 5 6 7 7 5 7 7 18 15 3 3 1 3 2 2 6 16 12 4 4 2 1 1 1 1 nan nan nan nan 0 0 0 nan nan nan nan
9 12 12 13 13 13 17 18 24 24 27 27 35 35 38 33 29 29 33 34 34 38 39 40 40 47 37 31 21 21 22 22 46 46 65 33 23 23 16 21 21 18 19 21 21 18 15 15 15 12 8 5 4 4 3 8 8 13 7 1 1 3 2 1 1 4 12 11 3 3 0 0 0 0 1 2 0 0 nan nan nan nan nan nan nan nan
10 13 15 13 13 16 16 21 22 22 23 21 19 19 26 29 29 29 28 29 29 46 55 69 69 66 45 30 16 16 23 30 53 53 58 28 11 11 14 18 18 20 18 20 20 18 14 13 13 13 13 7 5 5 2 10 10 13 7 2 2 1 2 1 1 3 14 9 3 3 0 1 1 1 2 4 2 2 1 1 1 0 nan nan nan nan
14 14 13 13 13 17 19 18 16 16 15 19 19 19 21 26 25 25 28 34 34 37 49 84 84 81 75 41 27 27 36 39 50 50 50 25 13 13 8 22 22 28 18 15 15 17 13 9 9 9 8 5 3 3 4 7 7 7 4 0 0 0 0 0 0 3 11 9 4 4 2 2 2 2 2 8 4 4 6 7 7 4 4 3 3 1
16 13 16 15 15 15 13 14 14 14 14 14 15 15 21 21 24 24 26 31 31 37 47 57 57 56 78 76 49 49 50 60 44 44 30 21 14 14 10 19 19 25 16 13 13 13 9 8 8 8 5 4 5 5 5 7 7 7 3 0 0 nan nan 0 0 3 13 9 8 8 4 3 2 2 0 nan nan nan nan nan nan 4 6 3 3 7
14 14 17 18 18 16 14 13 12 12 12 16 18 18 17 25 29 29 29 28 28 38 57 52 52 34 22 29 48 48 50 28 14 14 8 14 14 14 12 18 18 19 16 8 8 6 6 5 5 6 5 4 3 3 3 6 6 7 3 1 1 nan nan nan nan 3 11 13 7 7 3 2 1 1 0 nan nan nan nan nan nan 0 0 nan nan 7
14 12 15 18 18 14 12 12 10 10 11 17 23 23 19 20 21 21 27 37 37 50 54 42 42 28 22 33 38 38 36 27 27 27 17 10 15 15 17 15 15 11 10 5 5 4 6 5 5 7 7 5 4 4 3 6 6 11 12 5 5 nan nan nan nan 2 5 10 8 8 3 2 0 0 0 nan 0 0 nan nan nan nan nan nan nan nan
22 17 15 13 13 13 13 13 10 10 10 13 14 14 16 20 20 20 26 34 34 45 43 35 35 22 17 26 26 26 32 28 27 27 19 5 20 20 20 12 12 6 4 2 2 3 5 6 6 6 4 3 4 4 5 9 9 17 14 1 1 nan nan 0 0 1 5 8 6 6 4 2 2 2 1 0 nan nan nan nan nan 0 0 nan nan nan
26 18 11 8 8 8 8 9 15 15 16 11 14 14 12 23 24 24 22 25 25 37 38 26 26 20 16 16 20 20 23 24 23 23 24 12 25 25 17 7 7 2 4 4 4 4 6 7 7 6 4 5 7 7 9 18 18 19 4 nan nan 0 0 nan nan 0 3 2 2 2 3 1 2 2 2 1 0 0 1 0 0 3 2 0 0 1
16 12 10 9 9 7 11 19 19 19 14 13 13 13 14 17 23 23 31 32 32 47 47 25 25 21 19 19 15 15 19 29 35 35 37 24 10 10 11 8 8 8 10 6 6 4 4 7 7 5 5 8 10 10 15 22 22 4 nan nan nan 1 0 nan nan nan 0 0 nan nan 0 1 1 1 2 2 1 1 1 3 3 6 4 0 0 1
13 10 10 10 10 6 12 12 10 10 11 9 12 12 13 16 28 28 35 43 43 56 42 26 26 18 17 15 16 16 17 29 35 35 29 13 6 6 10 11 11 13 9 7 7 4 4 5 5 6 7 8 9 9 16 19 19 0 0 0 0 0 0 0 0 0 nan nan nan nan nan 0 0 0 0 1 0 0 0 0 0 0 3 1 1 1
6 9 10 11 11 11 14 11 11 11 12 10 16 16 15 19 29 29 35 47 47 46 32 17 17 15 17 15 16 16 15 20 27 27 18 8 12 12 12 11 11 10 11 10 10 8 5 4 4 5 8 10 15 15 19 6 6 nan nan nan nan nan nan 0 0 0 0 nan nan nan nan 0 nan nan nan nan nan nan nan 0 0 nan 0 1 1 1
9 9 11 9 9 7 12 10 8 8 10 15 19 19 17 15 21 21 44 44 44 29 18 16 16 17 14 13 13 13 14 20 15 15 9 6 9 9 11 11 11 11 11 13 13 12 9 6 6 6 9 16 17 17 8 0 0 nan nan nan nan nan nan 0 0 0 0 nan nan nan nan nan nan nan nan nan nan nan nan nan nan nan 0 0 0 1
9 8 8 6 6 5 5 9 8 8 10 17 20 20 14 13 22 22 39 32 32 17 15 13 13 13 12 13 13 13 13 15 9 9 4 4 6 6 6 6 6 8 8 11 11 12 12 11 11 5 7 10 0 0 0 nan nan nan nan nan nan nan nan nan nan nan nan nan nan nan nan nan nan nan nan nan nan nan nan nan nan 0 0 0 0 0
12 10 7 7 7 5 8 8 8 8 9 12 10 10 11 13 27 27 35 22 22 16 17 10 10 11 11 13 12 12 14 12 5 5 3 2 4 4 3 3 3 3 5 12 12 16 15 13 13 5 2 1 0 0 0 0 0 0 0 nan nan nan nan nan nan nan nan nan nan nan nan nan nan nan nan nan nan nan nan nan nan nan nan 0 0 0
12 11 9 9 9 10 10 9 8 8 6 7 8 8 9 26 65 65 24 15 15 10 10 13 13 13 10 11 17 17 19 7 2 2 3 3 2 2 2 2 2 1 1 4 4 12 15 11 11 7 3 1 0 0 0 0 0 0 0 nan nan nan nan nan nan nan nan nan nan nan nan nan nan nan nan nan nan nan nan nan nan nan nan nan nan 0
8 9 10 7 7 5 9 8 9 9 7 9 8 8 7 21 18 18 12 11 11 9 10 10 10 10 11 14 16 16 9 3 2 2 2 2 2 2 2 2 2 1 1 1 1 7 10 9 9 12 14 8 1 1 0 0 0 0 nan nan nan nan nan nan nan nan nan nan nan nan nan nan nan nan nan nan nan nan nan nan nan nan nan nan nan 0
9 10 8 6 6 7 8 5 6 6 7 7 8 8 10 17 16 16 11 11 11 10 11 12 12 11 10 16 16 16 9 2 2 2 2 2 2 2 1 1 1 1 1 1 1 5 7 5 5 3 12 25 7 7 0 0 0 nan nan nan nan nan nan nan nan nan nan nan nan nan nan nan nan nan nan nan nan nan nan nan nan nan nan nan nan 0
CIN
-0 -0 -0 -0 -0 -0 -0 -0 -0 -0 nan nan nan nan nan -0 -0 -0 -0 -0 -0 -0 -0 -0 -0 -0 -0 -0 -0 -0 -0 -0 -0 -0 -0 -0 -0 -0 -0 -1 -1 -3 -3 -1 -1 -0 -0 -2 -2 -2 -0 -0 -0 -0 -1 -1 -1 -0 -0 -0 -0 -0 -0 -0 -0 -0 -0 -0 -0 -0 -0 -0 -0 -0 -0 -0 -0 -0 -0 -0 -0 -0 -0 -0 -0 -0
-0 -0 -0 -0 -0 -0 -0 -0 -0 -0 -0 -0 -0 -0 -0 -0 -0 -0 -0 -0 -0 -0 -0 -0 -0 -0 -0 -0 -0 -0 -0 -0 -0 -0 -0 -0 -0 -0 -0 -0 -0 -0 -0 -0 -0 -0 -0 -1 -1 -0 -0 -2 -3 -3 -4 -4 -4 -1 -0 -0 -0 -0 -0 -0 -0 -0 -0 -0 -0 -0 -0 -0 -0 -0 -0 -0 -0 -0 -0 -0 -0 -0 -0 -0 -0 -0
-0 -0 -0 -0 -0 -0 -0 -0 -0 -0 -0 -0 -0 -0 -0 -0 -0 -0 -0 -0 -0 -0 -0 -0 -0 -0 -0 -0 -0 -0 -0 -0 -0 -0 -0 -0 -0 -0 -0 -0 -0 -0 -0 -0 -0 -0 -0 -1 -1 -2 -2 -2 -3 -3 -3 -3 -3 -1 -0 -1 -1 -2 -2 -1 -1 -0 -0 -0 -0 -0 -0 -0 -0 -0 -0 -0 -0 -0 -0 -0 -0 -0 -0 -0 -0 -0
-0 -0 -0 -0 -0 -0 -0 -0 -0 -0 -0 -0 -0 -0 -0 -0 -0 -0 -0 -0 -0 -0 -0 -0 -0 -0 -0 -0 -0 -0 -0 -0 -0 -0 -0 -0 -0 -0 -0 -0 -0 -0 -1 -0 -0 -0 -0 -0 -0 -0 -0 -0 -2 -2 -3 -3 -3 -2 -1 -2 -2 -2 -2 -2 -2 -0 -0 -0 -0 -0 -0 -0 -0 -0 -0 -0 -0 -0 -0 -0 -0 -0 -0 -0 -0 -0
-0 -0 -0 -0 -0 -0 -0 -0 -0 -0 -0 -0 -0 -0 -0 -0 -0 -0 -0 -0 -0 -0 -0 -0 -0 -0 -0 -0 -0 -0 -0 -0 -0 -0 -0 -0 -0 -0 -0 -0 -0 -0 -0 -0 -0 -0 -0 -0 -0 -0 -0 -1 -1 -1 -4 -5 -5 -4 -4 -3 -3 -3 -3 -2 -2 -2 -1 -1 -1 -1 -0 -0 -0 -0 -1 -1 -0 -0 -0 -0 -0 -0 -0 -0 -0 -0
-0 -0 -0 -0 -0 -0 -0 -0 -0 -0 -0 -0 -0 -0 -0 -0 -0 -0 -0 -0 -0 -0 -0 -0 -0 -0 -0 -0 -0 -0 -0 -0 -0 -0 -0 -0 -0 -0 -0 -0 -0 -0 -0 -0 -0 -0 -0 -0 -0 -0 -1 -0 -0 -0 -1 -2 -2 -5 -5 -5 -5 -4 -4 -4 -4 -4 -4 -4 -4 -4 -3 -2 -0 -0 -0 -1 -0 -0 -0 -0 -0 -1 -2 -0 -0 -0
-0 -0 -0 -0 -0 -0 -0 -0 -0 -0 -0 -0 -0 -0 -0 -0 -0 -0 -0 -0 -0 -0 -0 -0 -0 -0 -0 -0 -0 -0 -0 -0 -0 -0 -0 -0 -0 -0 -0 -0 -0 -0 -0 -0 -0 -0 -0 -0 -0 -0 -0 -0 -0 -0 -0 -1 -1 -2 -4 -5 -5 -5 -5 -4 -4 -4 -6 -8 -8 -8 -7 -5 -3 -3 -1 -1 -1 -1 -1 -0 -0 -1 -4 -2 -2 -0
-0 -0 -6 -1 -1 -0 -0 -0 -0 -0 -0 -0 -0 -0 -0 -0 -0 -0 -0 -0 -0 -0 -0 -0 -0 -0 -0 -0 -0 -0 -0 -0 -0 -0 -0 -0 -0 -0 -0 -0 -0 -0 -0 -0 -0 -0 -0 -0 -0 -0 -0 -0 -0 -0 -1 -6 -6 -4 -7 -9 -9 -8 -7 -5 -5 -5 -6 -8 -10 -10 -10 -13 -16 -16 -17 -11 -5 -5 -3 -3 -3 -2 -4 -3 -3 -2
-0 -2 -0 -0 -0 -0 -0 -0 -0 -0 -0 -0 -0 -0 -0 -0 -0 -0 -0 -0 -0 -0 -0 -0 -0 -0 -0 -0 -0 -0 -0 -0 -0 -0 -0 -0 -0 -0 -0 -0 -0 -0 -0 -0 -0 -0 -0 -0 -0 -0 -0 -0 -0 -0 -0 -0 -0 -0 -0 -1 -1 -5 -6 -5 -5 -5 -5 -6 -6 -6 -7 -13 -19 -19 -19 -17 -13 -13 -8 -5 -5 -3 -2 -1 -1 -0
-0 -0 -0 -0 -0 -0 -0 -0 -0 -0 -0 -9 -11 -11 -11 -0 -0 -0 -0 -0 -0 -0 -0 -0 -0 -0 -0 -0 -0 -0 -0 -0 -0 -0 -0 -0 -0 -0 -0 -0 -0 -0 -0 -0 -0 -0 -0 -0 -0 -0 -0 -0 -0 -0 -0 -0 -0 -2 -6 -7 -7 -5 -6 -5 -5 -2 -2 -3 -4 -4 -5 -9 -13 -13 -16 -17 -15 -15 -12 -8 -8 -4 -2 -0 -0 -0
-3 -0 -0 -0 -0 -0 -0 -0 -0 -0 -0 -0 -0 -0 -0 -0 -0 -0 -0 -0 -0 -0 -0 -0 -0 -0 -0 -0 -0 -0 -0 -0 -0 -0 -0 -0 -0 -0 -0 -1 -1 -0 -0 -0 -0 -0 -0 -0 -0 -0 -1 -0 -1 -1 -4 -18 -18 -23 -17 -13 -13 -10 -8 -5 -5 -2 -1 -2 -4 -4 -6 -7 -9 -9 -12 -13 -13 -13 -12 -8 -8 -5 -2 -0 -0 -0
-0 -0 -0 -0 -0 -0 -0 -0 -0 -0 -0 -0 -0 -0 -0 -0 -13 -13 -0 -0 -0 -0 -0 -0 -0 -0 -0 -0 -0 -0 -0 -0 -0 -0 -0 -0 -0 -0 -0 -0 -0 -0 -0 -0 -0 -0 -0 -0 -0 -0 -0 -1 -6 -6 -22 nan nan nan -17 -12 -12 -9 -8 -7 -7 -4 -3 -2 -2 -2 -2 -3 -11 -11 -12 -11 -10 -10 -10 -8 -8 -5 -2 -1 -1 -0
-0 -0 -0 -0 -0 -0 -0 -0 -0 -0 -0 -0 -0 -0 -0 -0 -0 -0 -13 -0 -0 -0 -0 -0 -0 -0 -0 -8 -0 -0 -0 -0 -0 -0 -0 -0 -0 -0 -0 -0 -0 -0 -0 -0 -0 -0 -0 -0 -0 -0 -4 -4 -7 -7 nan nan nan -13 -12 -10 -10 -8 -7 -6 -6 -5 -2 -0 -0 -0 -0 -3 -9 -9 -9 -8 -8 -8 -9 -8 -8 -6 -2 -2 -2 -0
-0 -1 -0 -0 -0 -0 -0 -0 -0 -0 -0 -0 -0 -0 -0 -0 -0 -0 -0 -0 -0 -0 -0 -0 -0 -0 -0 -0 -1 -1 -2 -0 -0 -0 -0 -0 -2 -2 -3 -2 -2 -3 -0 -0 -0 -0 -2 -2 -2 -2 -8 -4 -4 -4 -10 -11 -11 -9 -9 -9 -9 -7 -6 -5 -5 -5 -3 -1 -0 -0 -1 -5 -7 -7 -7 -6 -6 -6 -7 -8 -8 -8 -5 -3 -3 -1
-0 -2 -0 -0 -0 -0 -0 -0 -2 -2 -1 -0 -0 -0 -0 -0 -0 -0 -0 -0 -0 -0 -0 -0 -0 -3 -4 -5 -1 -1 -0 -1 -2 -2 -2 -3 -3 -3 -7 -4 -4 -0 -0 -0 -0 -0 -0 -13 -13 -4 -3 -0 -0 -0 -10 -8 -8 -3 -6 -6 -6 -5 -5 -5 -5 -6 -6 -5 -4 -4 -5 -6 -6 -6 -5 -5 -5 -5 -6 -7 -7 -8 -8 -5 -5 -3
-0 -4 -0 -0 -0 -0 -0 -7 -2 -2 -0 -0 -0 -0 -0 -0 -0 -0 -0 -2 -2 -1 -2 -2 -2 -2 -2 -3 -3 -3 -5 -2 -2 -2 -0 -0 -1 -1 -4 -0 -0 -0 -0 -0 -0 -0 -0 -7 -7 -0 -0 -0 -10 -10 -11 -7 -7 -4 -4 -4 -4 -4 -4 -4 -4 -6 -7 -7 -7 -7 -7 -7 -6 -6 -5 -5 -5 -5 -6 -7 -7 -7 -7 -6 -6 -5
-2 -2 -0 -0 -0 -0 -5 -3 -0 -0 -0 -0 -0 -0 -0 -0 -0 -0 -0 -0 -0 -1 -3 -1 -1 -0 -1 -0 -0 -0 -0 -0 -0 -0 -0 -0 -0 -0 -9 -0 -0 -0 -0 -0 -0 -0 -4 -0 -0 -0 -0 -1 -9 -9 -9 -7 -7 -4 -3 -3 -3 -4 -4 -5 -5 -4 -5 -5 -6 -6 -6 -6 -5 -5 -5 -5 -5 -5 -6 -6 -6 -6 -5 -5 -5 -4
-2 -0 -0 -0 -0 -0 -2 -0 -0 -0 -0 -0 -0 -0 -0 -0 -2 -2 -6 -3 -3 -2 -3 -0 -0 -0 -0 -0 -0 -0 -0 -0 -0 -0 -0 -0 -0 -0 -13 -0 -0 -0 -0 -0 -0 -0 -0 -0 -0 -0 -0 -3 -6 -6 -7 -5 -5 -4 -5 -7 -7 -4 -0 -0 -0 -1 -3 -4 -4 -4 -5 -5 -5 -5 -6 -5 -5 -5 -5 -4 -4 -4 -3 -3 -3 -3
-2 -0 -0 -0 -0 -0 -0 -0 -0 -0 -0 -0 -0 -0 -0 -0 -0 -0 -3 -2 -2 -3 -0 -0 -0 -0 -0 -0 -0 -0 -0 -0 -0 -0 -0 -0 -0 -0 -0 -0 -0 -0 -0 -0 -0 -0 -0 -0 -0 -0 -4 -8 -8 -8 -2 -3 -3 -8 -2 -0 -0 -0 -0 -0 -0 -1 -3 -3 -3 -3 -4 -4 -4 -4 -4 -4 -4 -4 -3 -3 -3 -2 -2 -1 -1 -1
-0 -0 -0 -1 -1 -0 -0 -0 -0 -0 -0 -0 -0 -0 -0 -0 -0 -0 -5 -7 -7 -1 -0 -0 -0 -0 -0 -0 -0 -0 -0 -0 -0 -0 -2 -0 -0 -0 -0 -0 -0 -0 -0 -0 -0 -0 -0 -0 -0 -0 -10 -0 -0 -0 -0 -0 -0 -0 -0 -0 -0 -1 -2 -2 -2 -1 -1 -1 -1 -1 -2 -2 -3 -3 -3 -3 -3 -3 -3 -2 -2 -1 -1 -1 -1 -1
-0 -0 -3 -3 -3 -0 -0 -0 -0 -0 -0 -0 -0 -0 -0 -0 -3 -3 -4 -1 -1 -0 -0 -0 -0 -0 -0 -2 -0 -0 -0 -0 -2 -2 -3 -0 -0 -0 -0 -0 -0 -0 -0 -0 -0 -0 -0 -0 -0 -1 -0 -0 -0 -0 -0 -0 -0 -0 -0 -0 -0 -0 -1 -1 -1 -0 -0 -0 -0 -0 -0 -1 -1 -1 -2 -2 -2 -2 -2 -2 -2 -1 -0 -0 -0 -0
-0 -0 -0 -0 -0 -0 -0 -1 -0 -0 -0 -2 -1 -1 -0 -0 -3 -3 -2 -0 -0 -0 -0 -0 -0 -0 -0 -1 -0 -0 -0 -2 -4 -4 -1 -2 -0 -0 -0 -0 -0 -10 -2 -0 -0 -0 -4 -12 -12 -20 -12 -3 -2 -2 -1 -0 -0 -0 -0 -0 -0 -0 -0 -0 -0 -0 -0 -0 -0 -0 -0 -0 -0 -0 -1 -1 -2 -2 -2 -1 -1 -0 -0 -0 -0 -0
-7 -2 -0 -0 -0 -0 -0 -0 -0 -0 -1 -6 -2 -2 -2 -2 -1 -1 -0 -0 -0 -0 -0 -0 -0 -0 -0 -0 -1 -1 -0 -9 -11 -11 -1 -0 -0 -0 -0 -7 -7 -1 -0 -2 -2 -0 nan nan nan nan nan -0 -4 -4 -6 -2 -2 -0 -0 -0 -0 -0 -0 -0 -0 -0 -0 -0 -0 -0 -0 -0 -0 -0 -0 -0 -1 -1 -1 -0 -0 -0 -0 -0 -0 -0
-9 -1 -0 -0 -0 -1 -1 -2 -7 -7 -15 -10 -5 -5 -2 -1 -1 -1 -1 -1 -1 -0 -0 -1 -1 -0 -0 -0 -0 -0 -0 -0 -9 -9 -4 -0 -0 -0 -1 -0 -0 -0 -0 -0 -0 -0 -0 nan nan nan nan -0 -0 -0 -0 -0 -0 -0 -0 -0 -0 -0 -0 -0 -0 -0 -0 -0 -0 -0 -0 -0 -0 -0 -0 -0 -0 -0 -0 -0 -0 -0 -0 -0 -0 -0
-5 -0 -0 -0 -0 -1 -0 -0 -0 -0 -3 -2 -6 -6 -2 -0 -0 -0 -0 -0 -0 -0 -3 -2 -2 -0 -0 -0 -2 -2 -0 -0 -6 -6 -5 -0 -0 -0 -0 -0 -0 -0 -0 -0 -0 -0 -0 -0 -0 -0 -0 -0 -0 -0 -0 -0 -0 -0 -0 -0 -0 -0 -0 -0 -0 -0 -0 -0 -0 -0 -0 -0 -0 -0 -0 -0 -0 -0 -0 -0 -0 -0 -0 -0 -0 -0
-0 -0 -0 -0 -0 -0 -0 -0 -0 -0 -0 -0 -3 -3 -2 -0 -0 -0 -0 -0 -0 -0 -1 -0 -0 -0 -0 -0 -3 -3 -0 -0 -8 -8 -2 -0 -0 -0 -0 -0 -0 -0 -0 -0 -0 -0 -0 -0 -0 -0 -0 -0 -0 -0 -0 -0 -0 -2 -0 -0 -0 -0 -0 -0 -0 -0 -0 -0 -0 -0 -0 -0 -0 -0 -0 -0 -0 -0 -0 -0 -0 -0 -0 -0 -0 -0
-0 -0 -0 -0 -0 -0 -0 -0 -0 -0 -0 -0 -0 -0 -3 -0 -0 -0 -0 -0 -0 -2 -0 -0 -0 -0 -0 -0 -0 -0 -0 -0 -8 -8 -2 -0 -0 -0 -0 -0 -0 -0 -0 -0 -0 -0 -0 -0 -0 -0 -0 -0 -0 -0 -0 -4 -4 -4 -1 -0 -0 -0 -0 -0 -0 -0 nan nan nan nan -0 -0 -0 -0 -0 -0 -0 -0 -0 -0 -0 -0 -0 -1 -1 -0
-0 -0 -0 -0 -0 -0 -0 -0 -0 -0 -0 -0 -0 -0 -0 -1 -0 -0 -0 -0 -0 -1 -0 -0 -0 -0 -0 -0 -0 -0 -0 -0 -0 -0 -3 -1 -0 -0 -0 -0 -0 -1 -0 -0 -0 -0 -0 -0 -0 -0 -0 -0 -0 -0 -0 -1 -1 -1 -3 -0 -0 -0 -0 nan nan nan nan nan -0 -0 -0 -0 -0 -0 -0 -0 -0 -0 -0 -0 -0 -0 -0 -1 -1 -0
-0 -0 -0 -0 -0 -0 -0 -0 -0 -0 -0 -0 -0 -0 -0 -2 -0 -0 -0 -0 -0 -0 -0 -0 -0 -0 -0 -0 -0 -0 -0 -1 -2 -2 -4 -0 -0 -0 -0 -0 -0 -0 -0 -0 -0 -0 -0 -0 -0 -0 -0 -0 -0 -0 -0 -0 -0 -0 -0 -1 -1 nan nan nan nan nan nan -0 -0 -0 -0 -0 -0 -0 -0 -0 -0 -0 -0 -0 -0 -0 -0 -0 -0 -0
-0 -0 -0 -0 -0 -0 -0 -0 -0 -0 -0 -0 -0 -0 -0 -3 -1 -1 -0 -0 -0 -0 -0 -0 -0 -0 -0 -0 -0 -0 -0 -0 -7 -7 -1 -0 -0 -0 -0 -0 -0 -0 -0 -0 -0 -0 -0 -0 -0 -0 -0 -0 -0 -0 -0 -0 -0 -0 -0 -0 -0 -0 -0 -0 -0 -0 -0 -0 -0 -0 -0 -0 -0 -0 -0 -0 -0 -0 -0 -0 -0 -0 -0 -1 -1 -1
nan nan nan -0 -0 -0 -0 -0 -0 -0 -0 -0 -0 -0 -0 -0 -5 -5 -1 -0 -0 -0 -0 -0 -0 -0 -0 -0 -0 -0 -0 -0 -8 -8 -2 -0 -0 -0 -0 -0 -0 -0 -1 -0 -0 -0 -0 -0 -0 -0 -0 -0 -0 -0 -0 -0 -0 -0 -0 -0 -0 -0 -0 -0 -0 -0 -0 -0 -0 -0 -0 -0 -0 -0 -0 -0 -0 -0 -0 -0 -0 -0 -1 -0 -0 -0
-0 -0 -0 -0 -0 -0 -0 -0 -0 -0 -0 -0 -0 -0 -0 -1 -1 -1 -1 -1 -1 -1 -0 -0 -0 -0 -0 -0 -0 -0 -0 -0 -0 -0 -6 -1 -0 -0 -0 -0 -0 -0 -0 -1 -1 -0 -0 -0 -0 -0 -0 -0 -0 -0 -0 -0 -0 -0 -0 -0 -0 -0 -0 -0 -0 -0 -0 -0 -0 -0 -0 -0 -1 -1 -2 -0 -0 -0 -0 -0 -0 -0 -0 -1 -1 nan
-0 -0 -0 -0 -0 -0 -0 -0 -0 -0 -0 -0 -0 -0 -1 -1 -0 -0 -0 -0 -0 -2 -0 -0 -0 -0 -0 -0 -0 -0 -0 -1 -0 -0 -1 -1 -0 -0 -0 -0 -0 -0 -0 -0 -0 -0 -0 -0 -0 -0 -0 -0 -0 -0 -0 -0 -0 -0 -0 -0 -0 -0 -0 -0 -0 -0 -0 -0 -0 -0 -0 -0 nan nan nan nan -1 -1 -0 -0 -0 -0 -1 nan nan nan
-0 -0 -0 -0 -0 -0 -0 -0 -0 -0 -0 -0 -0 -0 -1 -1 -0 -0 -0 -0 -0 -6 -4 -0 -0 -0 -0 -0 -0 -0 -0 -0 -0 -0 -4 -0 -0 -0 -0 -0 -0 -0 -0 -0 -0 -0 -0 -0 -0 -0 -0 -0 -0 -0 -0 -0 -0 -0 -2 -2 -2 -0 -0 -0 -0 -0 -0 -0 -0 -0 -0 -0 -0 -0 -0 nan nan nan nan -1 -1 -2 nan nan nan nan
-0 -0 -0 -0 -0 -0 -0 -0 -0 -0 -0 -0 -0 -0 -0 -0 -0 -0 -0 -0 -0 -6 -7 -5 -5 -1 -0 -0 -1 -1 -0 -0 -0 -0 -3 -1 -0 -0 -0 -0 -0 -0 -0 -0 -0 -0 -0 -0 -0 -0 -0 -0 -0 -0 -0 -0 -0 -4 -6 -1 -1 -0 -0 -0 -0 -0 -0 -0 -0 -0 -1 -1 -1 -1 -0 -0 -0 -0 nan nan nan nan nan nan nan nan
-0 -0 -0 -0 -0 -0 -0 -0 -0 -0 -0 -0 -0 -0 -0 -0 -0 -0 -0 -0 -0 -0 -4 -5 -5 -2 -1 -0 -2 -2 -1 -0 -0 -0 -0 -1 -0 -0 -0 -0 -0 -0 -0 -0 -0 -0 -0 -0 -0 -0 -0 -0 -0 -0 -0 -0 -0 -3 -2 -0 -0 -0 -0 -0 -0 -0 -0 -0 -0 -0 -1 -1 -1 -1 -0 -0 -0 -0 -0 -0 -0 -0 nan nan nan nan
-0 -0 -0 -0 -0 -0 -0 -0 -0 -0 -0 -0 -0 -0 -0 -0 -0 -0 -0 -5 -5 -5 -5 -1 -1 -1 -0 -1 -5 -5 -1 -0 -0 -0 -0 -2 -0 -0 -0 -0 -0 -0 -0 -0 -0 -0 -0 -0 -0 -0 -0 -0 -0 -0 -0 -0 -0 -0 -0 -3 -3 -0 -0 -0 -0 -0 -0 -0 -0 -0 -1 -0 -0 -0 -0 -0 -0 -0 -0 -0 -0 -0 -0 -0 -0 -1
-0 -0 -0 -0 -0 -0 -0 -0 -0 -0 -0 -0 -0 -0 -0 -0 -4 -4 -0 -7 -7 -8 -4 -1 -1 -0 -0 -0 -6 -6 -3 -0 -2 -2 -3 -3 -0 -0 -0 -0 -0 -0 -0 -0 -0 -0 -0 -0 -0 -0 -0 -0 -0 -0 -0 -0 -0 -0 -0 -2 -2 nan nan -0 -0 -0 -0 -0 -0 -0 -0 -0 -1 -1 -1 nan nan nan nan nan nan -0 -0 -0 -0 -0
-0 -0 -0 -0 -0 -0 -0 -0 -0 -0 -0 -0 -0 -0 -0 -0 -2 -2 -4 -7 -7 -6 -2 -1 -1 -1 -6 -7 -1 -1 -2 -6 -10 -10 -10 -5 -1 -1 -0 -0 -0 -0 -0 -0 -0 -0 -0 -0 -0 -0 -0 -0 -0 -0 -0 -0 -0 -0 -1 -1 -1 nan nan nan nan -0 -0 -0 -0 -0 -0 -1 -1 -1 -2 nan nan nan nan nan nan -1 -1 nan nan -0
-0 -0 -0 -0 -0 -0 -0 -0 -0 -0 -0 -0 -0 -0 -0 -0 -3 -3 -9 -2 -2 -2 -2 -2 -2 -2 -2 -1 -0 -0 -2 -8 -6 -6 -8 -6 -2 -2 -0 -0 -0 -0 -0 -0 -0 -0 -0 -0 -0 -0 -0 -0 -0 -0 -0 -0 -0 -0 -0 -0 -0 nan nan nan nan -0 -0 -0 -0 -0 -0 -1 -1 -1 -1 nan -1 -1 nan nan nan nan nan nan nan nan
-0 -0 -0 -0 -0 -0 -0 -0 -0 -0 -0 -0 -0 -0 -0 -0 -0 -0 -0 -0 -0 -0 -2 -2 -2 -2 -1 -0 -0 -0 -0 -4 -2 -2 -7 -10 -2 -2 -0 -0 -0 -0 -0 -0 -0 -0 -0 -0 -0 -0 -0 -0 -0 -0 -0 -0 -0 -0 -0 -0 -0 nan nan -0 -0 -0 -0 -0 -0 -0 -0 -0 -0 -0 -0 -1 nan nan nan nan nan -1 -1 nan nan nan
-0 -0 -0 -0 -0 -0 -0 -0 -0 -0 -0 -0 -0 -0 -0 -0 -0 -0 -0 -0 -0 -0 -1 -2 -2 -0 -0 -0 -0 -0 -0 -0 -5 -5 -6 -4 -0 -0 -0 -0 -0 -0 -0 -0 -0 -0 -0 -0 -0 -0 -0 -0 -0 -0 -0 -0 -0 -0 -0 nan nan -0 -0 nan nan -0 -0 -0 -0 -0 -0 -0 -0 -0 -0 -0 -0 -0 -0 -1 -1 -0 -0 -1 -1 -0
-0 -0 -0 -0 -0 -0 -0 -0 -0 -0 -0 -0 -0 -0 -0 -0 -0 -0 -0 -0 -0 -0 -0 -0 -0 -0 -0 -0 -0 -0 -0 -4 -0 -0 -0 -0 -0 -0 -0 -0 -0 -0 -0 -0 -0 -0 -0 -0 -0 -0 -0 -0 -0 -0 -0 -0 -0 -0 nan nan nan -0 -0 nan nan nan -0 -0 nan nan -0 -0 -0 -0 -0 -0 -0 -0 -0 -0 -0 -0 -0 -0 -0 -0
-0 -0 -0 -0 -0 -0 -0 -0 -0 -0 -0 -0 -0 -0 -0 -0 -0 -0 -0 -0 -0 -0 -0 -0 -0 -0 -0 -0 -0 -0 -0 -0 -0 -0 -0 -0 -0 -0 -0 -0 -0 -0 -0 -0 -0 -0 -0 -0 -0 -0 -0 -0 -0 -0 -0 -0 -0 -0 -0 -0 -0 -0 -0 -0 -0 -0 nan nan nan nan nan -0 -0 -0 -1 -0 -0 -0 -0 -0 -0 -0 -0 -0 -0 -0
-0 -0 -0 -0 -0 -0 -0 -0 -0 -0 -0 -0 -0 -0 -0 -0 -0 -0 -0 -0 -0 -0 -0 -0 -0 -0 -0 -0 -0 -0 -0 -0 -0 -0 -0 -0 -0 -0 -0 -0 -0 -0 -0 -0 -0 -0 -0 -0 -0 -0 -0 -0 -0 -0 -0 -0 -0 nan nan nan nan nan nan -0 -0 -0 -0 nan nan nan nan -1 nan nan nan nan nan nan nan -0 -0 nan -0 -0 -0 -0
-0 -0 -0 -0 -0 -0 -0 -0 -0 -0 -0 -0 -0 -0 -0 -0 -0 -0 -0 -0 -0 -0 -0 -0 -0 -0 -0 -0 -0 -0 -0 -0 -0 -0 -0 -0 -0 -0 -0 -0 -0 -0 -0 -0 -0 -0 -0 -0 -0 -0 -0 -0 -0 -0 -0 -0 -0 nan nan nan nan nan nan -0 -0 -0 -0 nan nan nan nan nan nan nan nan nan nan nan nan nan nan nan -0 -0 -0 -0
-0 -0 -0 -0 -0 -0 -0 -0 -0 -0 -0 -0 -0 -0 -0 -0 -0 -0 -0 -0 -0 -0 -0 -0 -0 -0 -0 -0 -0 -0 -0 -0 -0 -0 -0 -0 -0 -0 -0 -0 -0 -0 -0 -0 -0 -0 -0 -0 -0 -0 -0 -0 -0 -0 -0 nan nan nan nan nan nan nan nan nan nan nan nan nan nan nan nan nan nan nan nan nan nan nan nan nan nan -0 -0 -0 -0 -0
-0 -0 -0 -0 -0 -0 -0 -0 -0 -0 -0 -0 -0 -0 -0 -0 -0 -0 -0 -0 -0 -0 -0 -0 -0 -0 -0 -0 -0 -0 -0 -0 -0 -0 -0 -0 -0 -0 -0 -0 -0 -0 -0 -0 -0 -0 -0 -0 -0 -0 -0 -0 -0 -0 -0 -0 -0 -0 -0 nan nan nan nan nan nan nan nan nan nan nan nan nan nan nan nan nan nan nan nan nan nan nan nan -0 -0 -0
-0 -0 -0 -0 -0 -0 -0 -0 -0 -0 -0 -0 -0 -0 -0 -0 -0 -0 -0 -0 -0 -0 -0 -0 -0 -0 -0 -0 -0 -0 -0 -0 -0 -0 -0 -0 -0 -0 -0 -0 -0 -0 -0 -0 -0 -0 -0 -0 -0 -0 -0 -0 -0 -0 -0 -0 -0 -0 -0 nan nan nan nan nan nan nan nan nan nan nan nan nan nan nan nan nan nan nan nan nan nan nan nan nan nan -0
-0 -0 -0 -0 -0 -0 -0 -0 -0 -0 -0 -0 -0 -0 -0 -0 -0 -0 -0 -0 -0 -0 -0 -0 -0 -0 -0 -0 -0 -0 -0 -0 -0 -0 -0 -0 -0 -0 -0 -0 -0 -0 -0 -0 -0 -0 -0 -0 -0 -0 -0 -0 -0 -0 -0 -0 -0 -0 nan nan nan nan nan nan nan nan nan nan nan nan nan nan nan nan nan nan nan nan nan nan nan nan nan nan nan -0
-0 -0 -0 -0 -0 -0 -0 -0 -0 -0 -0 -0 -0 -0 -0 -0 -0 -0 -0 -0 -0 -0 -0 -0 -0 -0 -0 -0 -0 -0 -0 -0 -0 -0 -0 -0 -0 -0 -0 -0 -0 -0 -0 -0 -0 -0 -0 -0 -0 -0 -0 -0 -0 -0 -0 -0 -0 nan nan nan nan nan nan nan nan nan nan nan nan nan nan nan nan nan nan nan nan nan nan nan nan nan nan nan nan -0
Wind_Speed
12 12 13 16 16 16 15 17 18 18 17 15 15 14 14 15 15 16 19 19 19 19 18 18 19 20 22 25 27 29 30 30 30 30 30 30 30 30 31 31 32 32 32 32 31 31 30 29 28 27 26 26 26 26 27 27 26 26 25 25 25 26 26 27 27 28 29 29 28 28 27 27 27 27 27 27 27 27 27 28 28 27 27 26 25 25
12 12 12 16 18 17 14 16 18 18 17 16 15 14 15 16 15 14 15 17 18 18 17 18 19 20 23 23 26 28 29 30 31 31 31 30 30 30 31 32 32 32 32 32 31 30 29 28 27 27 27 27 27 27 26 26 25 24 24 24 24 24 25 26 27 27 28 27 27 27 26 27 27 27 27 26 26 26 27 27 27 27 27 26 26 25
12 13 12 14 15 16 14 15 16 16 17 17 16 16 17 18 16 14 13 15 16 16 16 17 18 19 22 22 24 27 29 30 31 31 31 30 30 31 31 32 32 32 31 30 29 29 28 28 28 29 29 28 28 27 26 25 24 23 23 23 23 23 24 25 26 26 26 26 26 26 26 26 27 26 25 25 25 25 26 26 27 27 27 27 26 26
12 12 12 12 12 14 14 14 14 14 14 15 16 18 19 17 15 14 14 15 15 16 16 18 18 19 19 19 21 24 28 30 30 31 31 31 31 31 31 31 31 30 29 29 29 29 29 29 29 29 29 29 28 27 26 25 24 23 23 22 22 22 23 24 24 25 25 25 24 25 25 25 25 25 24 24 24 25 25 26 26 26 26 26 27 27
12 12 12 11 11 12 13 13 13 13 13 14 15 16 16 15 14 14 14 15 16 16 16 17 17 18 17 17 19 23 27 29 30 31 31 31 31 31 30 30 29 28 28 29 29 30 30 30 29 29 29 28 28 27 26 25 24 24 23 22 22 22 23 23 24 24 24 24 24 24 24 24 24 24 23 24 24 25 26 26 26 25 25 26 26 27
12 12 12 11 10 10 10 10 10 11 12 12 13 13 14 13 13 13 14 15 15 15 15 15 16 17 17 17 20 23 27 28 29 30 30 30 30 29 28 28 28 28 28 29 30 30 30 29 29 29 29 28 28 28 27 27 26 25 24 23 23 23 23 23 23 23 23 23 23 23 24 24 23 23 23 23 24 25 26 26 26 25 25 25 26 27
12 11 11 10 8 7 7 8 10 10 11 11 11 11 12 12 13 14 14 14 14 14 14 14 15 16 17 18 20 22 23 25 26 26 27 27 27 27 26 27 27 28 28 29 29 30 30 29 29 29 29 29 29 29 29 28 27 26 25 24 24 23 23 23 23 23 23 23 23 23 23 23 23 22 22 22 23 24 25 25 25 25 25 24 25 26
13 12 10 9 7 6 7 8 10 11 11 11 11 11 12 11 12 13 15 15 15 14 14 14 14 14 14 16 17 18 18 19 19 20 21 22 23 23 24 25 26 27 28 29 29 30 30 30 30 30 30 30 30 30 29 28 27 26 25 24 24 24 24 24 23 23 23 22 22 22 22 21 21 20 20 20 21 22 23 24 25 25 25 25 25 26
13 11 9 8 8 9 9 9 10 11 11 11 11 11 12 12 12 12 13 14 14 13 13 13 13 13 13 14 15 15 16 16 16 16 17 17 18 19 22 23 25 27 28 29 29 30 30 30 31 31 31 30 29 28 27 25 24 23 23 23 23 23 23 24 24 23 23 22 22 21 20 20 19 19 19 19 20 21 22 23 24 24 25 25 26 26
11 10 9 9 9 10 10 10 11 11 12 12 11 11 11 13 13 13 13 12 12 12 11 12 13 13 13 13 13 14 15 16 18 19 20 20 21 22 23 23 23 24 27 28 29 29 30 30 30 30 29 27 26 24 24 22 21 21 21 21 21 21 22 23 23 23 23 22 21 20 19 18 18 17 18 18 19 20 20 21 22 24 25 26 26 27
9 9 10 10 10 10 10 10 11 11 12 12 11 11 10 11 12 12 13 13 12 12 11 12 12 12 12 12 12 13 14 14 16 18 20 22 23 24 24 24 23 24 26 26 27 28 28 28 28 28 26 25 24 23 23 22 21 20 20 19 19 20 20 21 22 22 22 21 20 19 18 17 17 17 17 18 18 19 20 21 21 22 24 25 26 27
9 9 9 9 9 10 10 10 10 11 11 11 11 11 10 10 10 11 13 13 13 13 13 12 12 12 12 12 12 13 13 13 13 14 14 16 17 18 18 18 18 19 21 21 22 23 24 25 25 25 24 24 24 23 23 22 21 21 20 19 19 18 18 19 19 20 19 19 18 18 17 17 17 17 17 18 18 19 19 20 21 21 23 24 25 26
10 9 9 9 10 10 10 10 10 10 9 9 10 10 10 10 10 11 12 13 13 13 13 12 12 12 13 12 12 12 12 12 12 11 11 11 11 11 11 11 11 12 13 14 14 16 19 21 22 22 22 23 23 23 23 22 21 20 20 19 18 17 17 16 16 16 16 16 16 17 17 17 17 17 17 18 18 19 19 19 20 21 22 23 24 25
10 9 9 10 10 10 10 11 11 10 9 9 9 10 10 11 11 12 12 12 13 13 12 13 13 12 12 12 11 10 10 10 10 9 9 9 8 8 8 8 9 10 10 11 12 13 16 17 17 18 20 21 22 22 21 20 19 19 18 18 17 16 15 14 14 14 14 14 15 16 16 16 16 17 17 17 18 18 19 19 19 20 20 21 22 24
10 10 10 10 11 10 11 11 10 10 10 9 10 10 11 12 12 12 12 12 12 12 12 13 13 12 9 8 7 7 8 8 8 8 9 9 9 9 9 10 10 11 11 11 12 14 16 15 14 14 16 19 20 20 19 18 18 18 18 17 16 15 14 14 13 13 13 14 15 16 16 16 16 17 17 18 18 19 19 19 19 20 20 20 21 22
9 9 10 11 11 11 10 10 10 10 10 10 11 11 12 12 12 12 12 12 12 11 11 12 11 10 7 6 6 6 8 8 9 10 11 11 10 10 11 11 11 11 11 12 12 13 14 13 14 14 16 18 20 20 20 19 18 18 18 17 17 16 15 14 14 14 14 15 15 16 16 16 16 17 17 18 18 19 19 19 20 20 20 20 20 21
9 9 10 11 12 11 10 10 10 10 10 10 11 11 12 12 12 11 11 11 11 10 10 10 9 8 5 6 7 8 9 10 10 10 11 11 11 11 11 11 12 12 12 12 12 13 13 13 13 13 14 17 19 20 20 19 19 19 19 19 18 18 17 16 16 16 16 16 16 16 17 17 17 17 18 18 19 19 19 20 20 20 21 21 21 21
9 10 10 11 11 11 10 10 10 9 10 10 11 11 11 11 11 11 11 11 11 11 11 9 8 6 6 7 7 8 9 10 10 10 11 12 11 11 11 11 12 12 13 13 13 13 12 13 13 13 14 18 20 21 21 21 20 20 20 20 19 19 18 18 18 17 17 17 17 17 17 17 18 18 18 19 19 19 20 20 20 21 21 21 21 21
11 11 11 11 11 10 10 9 9 9 10 10 11 11 12 12 12 12 12 12 12 12 12 11 9 7 8 9 9 10 10 10 10 10 11 12 12 11 11 11 12 13 13 13 13 12 12 12 14 16 18 19 20 21 21 21 20 19 19 19 19 19 19 18 18 18 18 18 18 18 19 19 19 19 19 19 20 20 20 20 21 21 21 21 22 21
13 12 11 11 10 10 10 10 10 11 11 12 12 12 12 12 13 13 12 12 11 10 9 9 9 9 9 10 11 11 10 10 10 10 10 11 12 12 11 11 12 13 13 12 12 11 11 11 12 13 15 17 18 20 20 20 20 19 19 19 19 18 18 17 18 18 19 19 20 20 21 21 21 21 21 21 21 21 21 21 22 22 22 22 22 22
13 13 11 10 10 10 9 10 11 12 14 14 13 13 12 12 12 12 11 11 10 10 9 9 10 10 10 11 11 11 11 10 10 9 8 9 10 10 10 11 12 12 12 12 10 9 9 8 8 9 12 15 17 18 19 19 19 20 20 19 18 18 18 18 19 19 20 21 22 22 22 22 22 22 22 22 22 22 22 23 23 23 23 23 22 22
12 12 12 12 12 10 10 11 13 14 15 15 14 12 11 11 12 12 12 12 11 11 11 11 11 12 12 12 12 12 11 10 9 8 6 8 10 10 10 10 10 10 10 9 7 7 7 8 9 11 13 17 18 19 19 18 18 18 18 17 17 18 18 19 20 21 22 22 23 23 23 23 24 24 24 24 23 23 23 23 24 24 24 23 23 22
12 12 12 12 11 11 11 12 12 13 14 13 13 12 11 11 12 12 12 12 12 12 12 12 12 13 12 12 12 11 10 9 8 7 6 8 10 11 9 8 8 8 9 8 8 9 10 11 11 12 14 19 20 20 19 18 17 16 16 17 17 18 19 20 21 21 22 22 23 23 24 24 24 25 25 25 25 24 24 24 24 24 24 23 23 22
12 11 11 10 10 10 11 12 12 12 12 12 12 12 12 12 12 12 12 12 12 12 12 12 12 12 12 11 11 10 9 9 8 7 5 7 9 10 8 7 8 9 10 10 10 11 12 12 12 12 13 17 19 20 20 19 18 17 17 17 18 19 19 20 20 21 21 22 23 23 24 25 25 25 25 26 25 25 25 25 24 24 24 23 22 22
10 10 10 10 12 14 16 16 17 17 16 14 13 13 13 14 14 14 13 13 12 12 11 11 11 11 10 10 10 9 9 9 8 7 5 6 8 9 8 8 8 9 10 10 10 10 11 11 11 11 12 14 18 20 21 21 20 19 17 17 17 18 19 19 20 21 21 22 23 24 25 25 26 26 26 26 26 25 25 24 24 23 23 22 21 21
14 14 15 18 21 25 27 27 27 26 25 21 17 14 13 14 14 13 13 12 11 11 11 11 11 10 9 9 9 9 8 8 7 6 5 5 7 8 8 8 8 9 10 10 9 10 10 11 11 11 12 13 16 19 20 20 19 17 16 16 17 17 18 19 20 21 22 23 24 25 26 26 26 26 26 26 26 25 24 24 23 22 21 20 20 19
21 23 26 27 28 29 30 30 30 30 30 27 23 20 16 13 12 12 12 11 10 10 10 10 10 9 9 9 9 9 8 7 6 5 5 6 8 9 9 8 8 8 9 9 9 9 11 11 12 12 12 12 13 15 17 17 16 15 14 15 16 18 19 20 21 23 24 25 26 27 27 28 28 27 27 26 25 25 24 23 22 21 20 18 16 16
24 25 26 27 27 28 28 28 28 28 28 28 28 26 21 14 12 12 12 10 10 9 9 9 9 9 10 10 10 9 9 7 6 6 6 6 7 7 8 7 7 7 8 8 9 10 11 11 11 12 12 11 11 11 12 12 13 13 14 16 17 18 20 21 23 24 25 27 27 28 29 29 28 28 27 26 25 24 23 22 21 19 17 14 12 10
23 24 25 25 25 25 25 25 24 25 25 26 26 25 19 13 11 11 12 10 9 9 9 9 9 10 10 11 10 10 9 7 6 6 5 6 6 7 7 7 7 7 7 7 8 9 9 9 9 10 10 9 9 8 8 9 11 12 13 16 18 19 21 22 24 25 26 27 28 29 30 30 29 28 27 26 25 24 22 21 20 17 13 11 9 8
19 20 20 21 21 20 20 19 19 20 22 24 24 22 18 13 11 11 11 10 9 8 8 9 10 10 11 11 10 9 8 6 5 4 4 5 6 6 7 7 8 7 6 6 7 7 7 7 7 7 8 8 8 8 8 9 10 11 11 14 15 17 19 21 23 24 26 27 29 30 30 29 28 27 26 25 24 23 21 21 18 14 9 8 8 8
17 17 16 16 16 15 15 15 15 16 17 19 19 18 15 12 10 10 10 9 8 8 9 10 10 11 11 10 9 8 6 6 5 5 4 5 5 6 7 8 8 8 6 5 6 6 7 6 5 6 7 8 9 9 9 10 10 10 10 10 11 13 17 19 21 22 24 25 26 26 25 22 22 22 23 23 22 22 21 20 17 13 8 7 7 7
15 14 13 13 13 13 12 12 12 12 12 13 13 12 12 11 10 9 8 8 8 8 9 10 11 11 11 10 10 9 7 7 7 7 6 5 5 6 7 7 8 8 6 5 6 7 7 6 5 6 7 8 9 9 10 10 10 9 9 8 9 11 15 16 18 19 19 20 19 17 14 12 12 13 16 18 19 20 20 19 17 12 7 6 5 5
14 13 12 12 12 12 11 11 11 11 11 10 10 10 10 9 9 9 8 8 8 8 9 11 11 12 12 12 11 10 9 8 9 9 8 6 6 6 6 7 8 8 7 7 7 7 7 7 6 6 7 7 8 8 9 10 10 9 7 7 8 9 12 13 13 14 14 14 12 10 11 10 8 5 4 8 12 15 17 17 15 12 8 6 5 4
14 13 13 13 12 12 11 11 11 11 11 10 10 10 9 9 9 9 9 8 8 8 9 10 11 12 11 11 11 10 10 9 10 10 9 7 6 6 7 8 8 8 8 7 7 7 7 8 8 7 6 7 7 8 9 9 9 7 5 5 6 8 9 9 9 10 10 9 7 7 9 10 11 11 8 5 4 7 10 11 12 12 10 8 7 6
13 13 13 12 12 12 12 12 11 11 11 10 10 10 10 9 9 9 10 9 9 9 9 10 10 11 11 10 10 10 11 10 10 11 10 9 8 7 8 8 8 7 7 7 7 6 6 8 8 8 7 7 7 7 8 8 7 5 4 5 6 6 7 7 8 8 8 6 5 5 6 7 9 10 11 12 12 11 11 11 12 12 12 11 9 8
13 13 13 12 12 12 12 12 11 11 11 10 10 10 10 10 10 10 10 10 11 11 11 10 10 10 10 10 10 11 12 11 11 12 11 10 9 8 7 7 7 7 8 8 8 7 7 8 8 9 9 8 7 7 7 7 5 4 4 4 5 5 5 6 7 7 6 4 4 5 6 6 7 9 11 15 17 18 18 16 16 15 14 13 12 10
12 12 12 12 11 11 12 11 11 11 10 10 10 10 10 11 11 11 11 11 12 12 12 12 12 11 12 11 11 11 12 11 12 12 13 11 10 9 8 8 8 8 8 8 8 8 7 8 8 9 9 8 7 6 6 6 6 6 6 5 4 4 5 6 7 6 4 2 3 5 6 6 7 8 10 15 17 18 19 19 19 18 18 16 15 15
12 12 12 11 11 11 11 11 11 11 10 10 11 11 12 12 12 13 12 13 13 13 13 12 11 12 14 15 14 14 14 15 15 15 15 12 11 10 9 9 8 8 8 8 8 8 7 8 8 8 7 7 8 8 8 8 7 7 6 5 4 3 4 5 6 6 3 2 4 6 7 6 7 7 8 10 10 11 12 13 14 16 17 17 18 18
12 12 12 12 11 11 11 11 11 11 11 11 12 12 13 13 14 13 12 12 13 13 12 12 11 11 12 13 14 15 16 16 15 15 14 12 11 10 10 9 9 9 8 7 7 7 8 8 8 8 7 7 8 8 8 8 7 7 6 5 3 3 3 5 6 6 3 2 4 6 6 6 6 6 7 7 7 8 8 9 9 10 11 11 13 16
12 12 12 12 12 11 11 11 12 12 12 12 13 13 13 12 12 11 11 11 11 12 12 12 12 11 11 12 13 14 15 13 13 13 12 11 10 9 9 9 8 8 7 7 7 7 8 8 8 8 8 8 7 8 7 8 7 7 6 4 3 3 4 5 6 5 3 2 4 5 6 6 6 7 7 7 7 7 7 6 7 7 8 7 8 10
12 12 12 11 11 12 12 12 12 12 12 12 12 12 11 11 10 10 10 11 11 10 10 10 10 10 10 10 11 12 13 13 13 13 11 10 9 9 8 7 7 7 7 7 7 7 8 8 8 9 9 9 9 9 9 9 8 7 5 3 3 3 4 5 5 5 3 3 4 5 6 6 7 7 7 8 7 7 7 6 6 7 6 6 6 6
13 12 12 11 11 11 11 12 12 13 13 12 12 11 11 10 10 10 11 11 10 9 9 9 9 10 10 10 10 10 11 11 11 10 10 8 7 6 6 6 6 6 6 7 7 7 8 8 8 9 9 9 8 8 8 8 7 4 2 2 2 3 3 4 5 5 4 3 4 5 7 6 6 7 7 7 7 7 7 7 8 8 7 6 5 5
12 11 11 11 11 12 12 13 13 12 11 11 11 11 10 10 11 11 12 11 11 10 9 9 9 10 10 10 9 9 9 9 9 9 7 5 5 5 6 7 7 6 6 6 7 7 7 8 8 9 9 9 8 8 9 7 4 1 1 1 2 2 2 2 3 4 4 4 4 5 5 6 6 6 7 7 7 7 7 9 10 10 9 7 6 6
11 11 11 11 11 11 11 11 11 11 11 11 11 11 11 11 12 12 12 11 10 10 9 9 9 9 10 10 9 9 8 7 7 6 4 3 4 5 6 7 7 7 6 6 6 6 7 7 8 8 8 8 8 9 9 6 3 0 2 2 3 3 2 2 2 3 3 3 4 5 5 6 6 7 7 7 7 7 7 7 8 8 9 8 8 8
11 11 11 11 11 11 11 11 11 11 11 11 11 11 11 12 12 12 11 10 10 10 10 9 9 8 8 8 8 8 7 6 5 3 2 3 4 6 6 6 6 6 6 6 6 5 6 6 6 7 7 7 8 8 7 4 1 1 2 3 3 3 3 3 2 2 2 3 4 5 5 5 6 7 8 8 7 7 7 7 7 8 8 8 8 8
11 11 11 11 11 12 12 12 12 12 11 11 11 11 11 12 11 11 11 10 10 10 10 9 8 8 8 8 8 7 7 6 5 4 3 3 4 4 5 5 5 5 5 5 5 5 5 5 6 6 6 6 5 4 2 0 1 2 2 3 3 2 2 3 3 2 2 3 4 5 5 6 7 8 8 8 8 7 7 7 8 8 8 7 7 7
12 12 12 12 12 12 12 12 12 12 12 12 12 11 11 11 11 10 10 10 10 10 9 9 8 8 9 8 8 7 7 6 5 5 4 4 4 5 5 5 5 5 5 5 5 5 5 5 5 5 5 4 3 1 2 2 2 2 2 3 3 2 2 2 3 3 3 3 4 5 5 6 7 8 8 8 8 7 7 7 8 8 7 7 7 7
12 12 12 12 12 12 12 12 12 12 12 12 12 12 12 12 11 11 10 10 9 9 9 8 8 8 8 8 8 7 7 6 6 5 5 5 5 5 5 5 5 5 5 5 5 5 4 3 4 4 4 4 3 2 2 3 3 3 3 3 3 2 2 2 3 3 3 4 4 5 5 5 6 7 7 8 8 7 7 7 7 7 7 7 7 7
12 12 12 12 12 12 12 12 12 12 12 12 12 12 12 12 12 12 10 9 9 8 8 8 8 8 8 8 7 6 6 5 5 5 5 5 5 5 5 5 5 4 4 4 4 4 2 2 3 5 6 5 4 3 3 3 3 3 3 3 3 2 2 2 2 3 3 4 6 6 6 5 6 6 7 8 8 8 8 7 7 7 6 6 6 7
12 12 12 12 12 12 12 12 12 12 13 13 13 12 12 11 10 9 9 9 8 8 8 8 8 8 8 7 7 6 5 5 5 5 5 5 5 5 6 5 5 5 4 3 3 3 3 1 2 5 8 9 8 5 3 3 3 3 3 3 3 2 2 2 2 3 4 5 6 7 7 6 6 6 7 8 9 8 8 7 7 6 6 5 6 7
12 12 12 12 12 12 12 12 12 12 13 13 13 12 11 10 9 9 8 8 8 8 8 8 7 7 7 7 6 6 5 5 5 5 5 5 5 6 6 5 5 5 4 3 2 2 2 1 1 3 7 11 12 10 5 4 3 3 3 3 3 2 2 2 3 4 5 6 6 6 7 6 6 6 6 7 8 8 8 7 6 6 5 5 5 7
Wind_Direction
294 297 298 299 297 295 293 294 294 294 295 296 297 298 300 301 300 300 300 299 298 296 295 293 292 291 290 289 289 288 288 288 288 288 288 288 289 289 289 288 287 287 286 285 285 285 285 285 285 285 285 286 286 287 287 285 283 280 277 274 272 271 269 267 265 263 261 259 258 257 257 256 256 255 253 252 251 250 249 248 246 245 244 244 245 246
294 295 296 295 294 292 290 292 293 293 295 296 298 299 302 302 302 301 300 298 297 296 294 293 293 292 291 291 290 289 289 288 288 288 287 286 286 285 285 284 283 283 283 283 283 284 285 285 286 286 287 287 286 285 283 282 280 277 275 273 271 271 270 269 268 266 264 262 260 259 257 256 255 254 253 252 251 250 250 249 247 246 244 242 242 243
296 295 294 293 292 291 291 293 294 294 295 298 300 302 304 303 302 301 300 299 297 296 295 295 294 293 292 291 290 289 289 289 288 288 287 286 285 283 282 281 281 282 283 283 284 286 287 287 287 287 287 286 285 283 281 279 277 275 273 271 270 269 268 268 267 266 265 263 261 259 257 256 255 254 252 251 250 249 249 249 248 247 245 243 242 241
295 295 296 295 293 292 292 295 297 298 299 300 301 301 302 301 300 299 299 299 298 298 296 296 295 294 293 292 291 289 289 288 288 287 287 286 284 283 282 281 282 284 285 286 287 288 288 288 287 287 287 286 285 283 282 280 278 275 274 272 270 268 267 265 265 264 263 261 260 258 256 255 255 254 252 250 249 249 249 249 248 247 246 244 243 241
294 295 297 296 295 294 295 297 300 301 301 298 298 298 299 299 299 299 300 299 299 298 297 297 295 294 293 291 290 288 288 287 287 286 286 285 285 284 284 285 286 287 288 289 289 288 288 287 287 286 286 286 286 285 284 283 281 279 277 275 272 269 267 265 264 262 261 259 257 256 254 253 253 253 252 251 250 250 250 250 249 248 246 245 243 242
293 293 295 295 296 297 301 301 299 296 294 293 294 296 298 300 300 300 300 300 300 299 298 296 294 292 290 288 287 286 286 286 286 286 285 286 286 287 287 288 289 289 289 288 288 287 287 287 287 287 287 288 287 287 286 285 283 281 279 277 274 271 268 266 264 262 261 259 256 254 252 251 251 250 250 250 250 251 251 252 251 250 248 246 244 243
290 290 293 295 297 298 297 292 289 288 290 294 297 300 301 301 300 300 299 299 298 297 295 292 290 288 286 285 285 286 286 287 287 287 286 287 288 289 289 290 289 289 288 287 287 287 287 288 288 288 289 289 288 287 286 284 283 281 279 276 274 271 268 266 264 263 261 259 257 254 251 250 248 248 247 248 249 250 251 252 252 251 249 247 245 244
290 292 296 297 297 292 285 284 288 292 298 301 304 304 303 301 299 297 297 295 294 292 290 288 287 286 286 288 289 290 290 290 289 289 289 289 290 290 290 290 289 288 287 287 287 287 288 288 288 289 289 288 287 286 284 283 282 280 278 276 273 270 267 265 264 263 261 259 257 254 251 249 247 246 246 246 247 249 250 251 251 251 250 248 247 245
294 297 299 297 295 294 292 291 295 300 304 304 304 303 302 300 297 295 293 291 290 289 287 288 288 288 289 291 292 293 293 292 292 292 292 292 291 291 290 289 288 287 286 286 286 286 287 287 287 287 287 287 286 285 285 285 284 283 281 278 274 270 267 265 263 262 260 258 256 253 250 248 247 246 247 247 248 248 249 249 249 249 249 248 248 247
297 299 300 297 296 297 298 298 300 302 303 301 299 297 296 296 295 294 291 290 289 288 287 288 290 291 292 292 292 292 293 292 292 291 289 287 286 285 284 283 283 283 283 283 283 284 284 284 285 285 286 286 286 286 286 288 288 287 285 282 277 273 268 265 262 260 258 256 253 251 249 248 247 248 249 249 250 250 249 249 249 248 248 248 248 248
299 298 298 298 297 297 296 297 300 301 301 298 294 291 289 290 292 292 292 292 291 291 290 290 291 292 293 293 293 293 292 291 289 287 286 284 283 282 281 281 280 279 280 280 281 281 282 283 283 284 285 285 285 286 287 287 287 286 284 281 278 274 270 266 262 259 256 253 251 249 248 248 248 250 251 252 252 252 251 250 249 248 248 248 248 249
295 295 296 297 298 297 295 295 296 297 297 295 294 292 290 290 290 290 292 293 294 294 293 292 291 290 291 292 292 292 290 288 288 287 287 287 286 286 285 285 284 283 283 283 282 282 282 283 283 283 284 284 285 285 286 286 285 283 280 278 275 273 270 267 263 259 256 253 251 250 250 250 251 252 253 254 255 255 254 253 251 249 248 248 249 249
293 295 296 296 297 297 296 296 296 295 294 294 293 293 294 293 293 292 292 293 293 294 293 292 290 288 287 288 289 290 290 290 290 291 292 292 292 293 294 294 294 294 292 290 288 287 284 283 283 283 283 283 284 284 285 284 283 281 278 275 273 271 268 266 263 261 258 255 254 254 253 254 255 256 257 257 258 257 257 256 254 252 251 250 250 250
293 294 295 295 295 295 295 294 294 293 293 293 293 294 295 296 296 295 293 291 291 291 291 290 289 287 287 287 288 289 290 293 293 293 291 289 289 289 291 290 290 289 288 286 284 282 281 282 282 283 283 283 283 283 284 283 282 281 279 277 274 271 268 265 263 262 260 258 257 257 258 258 259 260 260 261 261 260 260 259 258 256 255 253 252 251
291 294 296 295 295 295 294 292 291 291 292 294 296 297 298 297 296 294 293 291 291 291 291 288 286 285 285 285 284 284 284 287 289 289 288 286 285 285 286 283 281 280 279 279 280 280 281 282 282 283 283 282 282 282 283 283 283 283 283 282 280 277 273 269 267 265 263 261 261 261 262 263 263 264 264 264 263 263 262 261 260 259 258 256 255 254
291 294 296 296 295 293 291 289 289 291 294 298 300 300 299 297 296 295 293 292 292 291 289 287 285 282 278 272 272 278 284 288 289 290 292 290 290 289 289 287 286 284 283 283 283 283 283 283 282 282 281 281 281 281 282 281 282 283 284 285 284 282 279 276 273 270 268 266 265 265 265 266 267 267 267 266 265 264 263 262 261 260 259 259 257 256
293 295 296 296 294 291 287 286 287 292 297 300 300 298 296 296 295 294 293 291 290 288 284 282 282 284 286 286 288 293 297 297 296 295 295 295 295 296 297 295 293 291 288 286 284 282 282 281 281 280 279 280 281 282 282 282 282 282 282 283 284 284 283 280 278 275 272 271 269 269 269 270 270 270 269 268 267 265 264 263 261 260 260 259 258 257
297 298 297 294 291 288 285 287 290 295 300 300 299 297 295 294 292 291 289 287 285 282 279 277 280 289 300 301 301 302 303 299 298 297 297 296 297 298 298 293 290 287 285 282 280 279 279 279 279 279 278 281 282 284 285 283 283 283 283 284 285 285 284 282 279 277 276 275 274 274 274 274 273 273 272 270 269 267 265 264 263 261 260 259 258 258
297 296 295 291 288 285 285 290 295 300 301 300 299 298 294 291 289 287 286 282 279 277 278 282 286 293 298 296 297 300 302 300 300 299 297 295 294 293 292 287 284 282 280 279 278 277 277 276 276 277 281 287 291 293 293 292 292 292 292 291 289 287 285 283 282 281 281 281 280 280 279 278 277 276 274 272 270 269 267 266 265 264 262 261 259 258
293 292 290 288 286 286 287 292 296 299 300 299 297 294 290 289 287 285 282 280 278 277 281 287 292 295 296 294 295 297 300 300 298 295 291 289 288 287 286 285 283 281 278 277 277 279 281 284 288 292 296 298 300 301 302 302 302 301 300 296 292 290 288 288 288 288 288 287 286 284 282 280 278 276 274 272 270 269 267 267 266 265 263 262 260 259
288 287 284 283 284 287 291 294 297 298 299 299 296 293 288 287 285 284 282 283 283 285 288 291 294 295 296 293 292 293 298 298 295 291 285 282 281 282 283 282 280 279 277 279 282 287 292 295 297 298 297 297 297 297 298 298 297 296 295 295 294 294 294 294 293 291 289 288 286 284 282 280 278 276 273 271 269 267 266 265 265 264 263 262 261 259
284 283 282 283 285 288 292 294 296 298 299 298 295 291 288 288 288 288 289 290 291 292 295 295 295 294 291 288 288 290 294 292 289 284 282 279 280 282 284 284 282 280 279 281 286 293 296 292 288 286 287 290 289 287 287 287 286 286 290 293 294 294 292 290 289 288 286 285 284 283 282 280 278 276 273 271 269 266 265 264 263 262 262 261 260 259
279 279 282 285 287 290 293 295 296 297 298 295 291 287 286 288 289 290 292 292 292 293 294 293 291 287 283 282 284 287 290 287 284 281 280 281 283 284 284 282 281 282 283 289 295 298 297 295 294 293 294 294 293 291 291 290 289 290 290 290 290 289 288 287 286 286 285 285 285 284 283 281 279 277 274 271 269 266 264 263 261 260 260 259 259 258
280 281 284 287 290 292 294 295 296 296 296 292 289 286 285 284 283 283 284 285 287 289 289 286 283 280 277 280 284 288 291 291 288 283 278 277 278 280 282 285 288 291 293 298 301 302 301 299 298 299 300 299 299 299 298 297 295 293 291 289 288 287 287 287 287 287 287 286 286 285 284 282 279 277 274 271 269 266 264 262 260 259 259 258 257 256
284 285 288 291 294 296 297 297 297 296 296 294 292 289 287 285 284 283 283 284 284 284 282 278 277 278 282 287 290 292 294 292 289 284 278 276 278 282 290 297 300 299 296 297 298 299 298 297 298 299 300 300 299 299 297 295 294 292 291 290 290 290 290 290 290 289 289 288 287 285 284 282 279 276 274 271 268 266 263 261 260 259 258 257 256 254
294 294 295 297 298 299 299 298 297 297 296 295 293 291 289 288 287 286 285 283 281 279 277 277 279 284 291 294 295 294 294 293 290 287 285 288 290 292 294 297 295 293 293 295 298 299 299 298 298 298 297 294 293 292 291 290 291 293 294 294 294 293 293 293 293 292 292 291 289 287 285 282 279 276 273 270 268 265 263 261 259 258 256 255 254 252
301 300 300 301 301 301 300 299 298 297 296 295 293 291 290 289 287 285 283 282 280 279 279 282 288 293 297 295 293 293 295 295 296 296 296 293 291 290 291 294 296 296 297 297 299 299 298 295 294 292 290 287 285 285 289 292 295 299 300 298 297 297 297 297 297 296 294 293 291 288 286 283 279 276 273 270 267 264 262 260 258 256 255 253 252 250
306 305 305 304 303 302 301 300 300 298 297 295 294 292 291 288 286 285 285 285 285 284 285 291 296 299 299 296 294 293 295 295 297 300 300 291 284 283 290 298 300 300 299 297 295 293 291 289 288 287 284 284 284 288 295 301 303 303 301 300 299 299 299 299 298 297 295 293 291 288 285 282 279 275 272 268 265 262 260 258 256 254 252 250 248 246
309 308 306 305 304 304 303 301 300 298 296 295 293 292 290 287 285 285 286 287 288 289 292 298 301 301 298 295 293 292 290 291 295 300 300 288 282 283 293 298 299 298 299 297 294 290 285 283 282 283 284 290 297 305 309 309 306 301 298 299 300 300 300 299 298 297 295 293 291 288 284 280 276 272 268 265 262 259 256 254 253 251 247 244 242 242
312 310 308 307 306 305 303 301 298 296 294 293 292 290 288 285 282 282 283 286 290 296 302 304 302 299 296 294 292 290 287 289 296 303 302 288 285 287 296 296 296 297 300 299 296 291 285 283 284 288 296 306 311 313 311 307 302 299 297 299 300 300 300 299 298 298 297 294 291 287 283 278 273 268 263 259 256 253 250 248 246 244 240 238 237 237
314 312 310 308 307 305 302 299 296 294 292 291 289 288 286 284 281 281 283 290 297 303 306 303 299 295 292 291 290 289 288 294 303 308 303 290 287 290 296 295 294 294 296 296 295 295 295 292 293 297 304 308 308 306 304 300 298 296 296 299 300 300 300 301 300 300 298 295 292 289 285 280 272 263 257 252 248 244 242 240 238 236 233 231 230 230
313 311 309 307 305 303 300 297 294 293 291 290 289 288 286 284 282 283 288 295 301 303 301 296 292 288 284 282 282 283 288 297 304 307 304 293 288 289 292 291 291 291 290 286 286 288 294 296 299 301 302 301 301 299 297 294 292 292 295 298 300 301 302 303 303 302 299 297 299 303 307 302 286 267 252 243 238 235 233 230 228 225 219 213 208 206
310 308 306 304 302 300 297 295 294 294 293 293 292 291 289 287 287 289 292 295 296 295 293 289 286 284 280 277 277 279 285 293 300 304 305 297 290 289 290 290 290 290 289 282 278 278 281 287 293 297 296 295 294 294 292 290 289 290 294 299 300 302 304 306 306 304 301 303 315 337 353 358 357 340 265 232 224 220 218 214 208 200 189 178 166 155
308 306 303 302 300 298 297 297 297 297 297 296 296 296 294 293 294 295 296 294 291 288 285 283 282 281 280 280 280 282 286 291 297 301 303 296 291 289 292 290 289 289 289 283 279 277 276 281 287 293 296 295 293 292 291 289 289 290 295 298 301 302 305 308 307 304 303 311 329 352 9 16 23 31 42 68 133 171 180 179 173 165 153 148 143 138
306 304 302 301 301 300 300 300 300 299 299 298 298 299 298 298 298 297 296 293 289 285 280 278 276 277 278 282 285 288 290 293 296 298 297 292 290 289 290 287 286 287 286 284 282 281 280 282 287 291 295 296 294 291 288 287 288 292 295 298 300 302 304 308 305 303 305 318 339 2 15 21 28 36 47 60 73 88 105 119 126 128 126 127 127 129
305 303 303 303 303 303 302 302 302 302 301 301 300 300 300 300 298 296 295 292 289 285 281 275 271 270 272 277 283 287 290 293 294 293 290 287 286 286 286 284 284 285 284 282 281 281 282 285 288 290 291 292 292 290 287 288 289 293 295 301 305 306 307 309 305 303 306 327 3 22 28 30 35 43 52 62 68 73 80 86 91 96 100 103 105 108
303 303 303 304 304 304 304 304 303 303 303 302 302 302 301 299 297 296 294 291 289 286 282 276 272 269 270 273 277 281 285 288 288 286 284 283 282 281 281 281 281 279 278 279 281 283 285 287 288 288 287 286 287 290 293 296 297 298 301 308 312 313 314 316 309 305 313 354 33 42 41 41 43 49 56 63 67 69 73 76 78 81 84 86 88 91
304 304 304 305 305 304 304 304 304 304 304 303 303 302 300 298 295 293 292 289 285 282 279 276 274 273 274 276 277 278 279 281 281 281 280 279 277 276 276 277 277 275 274 277 280 284 285 285 286 286 285 284 284 287 292 296 299 301 305 309 312 314 322 322 314 310 323 27 55 57 54 49 49 52 55 58 60 64 68 69 71 74 79 80 81 83
304 304 304 305 305 305 304 304 304 304 304 302 301 300 298 296 293 290 288 285 282 278 275 274 276 277 278 277 277 277 277 277 277 276 275 273 272 272 272 274 276 276 276 276 277 278 278 278 279 281 284 285 286 287 290 292 294 297 304 306 309 318 334 329 320 316 330 38 66 68 61 55 54 55 56 54 56 61 65 66 66 68 72 76 79 81
303 303 303 304 304 303 303 302 302 302 302 300 298 297 296 294 292 290 286 283 280 278 276 276 278 279 280 279 279 278 278 276 274 273 272 269 267 268 270 272 275 277 277 274 272 270 269 270 271 274 276 279 283 286 288 287 288 293 299 304 314 330 343 335 326 321 336 33 66 72 68 61 58 57 56 55 55 57 61 64 64 63 63 72 81 85
303 303 303 303 303 302 300 300 300 300 299 299 297 296 296 295 294 293 292 289 285 282 280 282 283 284 283 282 280 280 279 276 274 272 270 268 268 269 270 271 274 275 276 273 269 266 264 266 268 270 270 273 275 277 278 279 282 286 294 306 316 324 333 333 330 330 346 30 59 70 71 67 63 60 59 56 54 53 56 62 66 64 60 60 71 86
303 303 302 302 302 302 301 300 299 298 297 297 296 296 296 297 296 296 295 293 290 287 287 291 294 294 293 288 285 282 279 276 274 272 271 271 272 273 274 274 274 274 274 272 269 267 264 265 266 267 267 268 270 271 273 275 278 282 294 319 317 312 318 337 337 336 350 23 52 66 70 70 68 65 63 60 57 54 52 58 63 66 65 60 58 65
302 301 301 301 300 300 300 299 298 298 298 297 297 296 297 297 296 295 294 292 291 292 295 298 300 299 296 293 290 287 282 278 276 275 276 276 275 276 276 275 276 276 276 275 274 271 269 265 264 263 264 265 268 270 274 275 276 281 54 8 330 314 327 345 342 341 356 25 46 58 65 70 71 70 67 63 59 55 53 55 56 58 59 61 60 58
301 300 300 300 299 299 300 300 300 300 300 299 298 297 297 296 295 294 293 292 292 296 301 304 302 299 293 291 291 291 289 286 283 280 273 266 264 267 272 274 276 276 275 274 274 274 275 270 266 265 265 265 264 265 266 264 257 152 65 31 10 354 350 340 335 343 8 38 51 59 65 73 76 75 69 63 58 54 53 52 51 50 51 54 58 62
300 299 300 300 301 302 302 302 301 301 301 299 298 298 298 298 297 296 294 293 297 301 306 306 303 298 292 292 294 295 295 296 295 291 270 261 262 265 269 272 274 274 272 270 271 273 276 277 277 276 274 266 262 260 260 252 215 100 67 54 40 19 350 336 336 356 45 59 61 63 66 74 78 77 72 65 58 53 51 53 53 54 52 53 57 62
301 302 302 302 303 302 302 302 302 301 301 300 300 300 300 300 299 297 295 297 301 305 307 305 301 295 294 296 297 298 299 302 306 309 305 294 286 280 276 275 276 278 278 277 274 273 273 280 285 287 283 272 266 266 281 12 94 91 80 71 61 40 357 345 349 12 54 70 71 70 71 76 79 78 76 70 62 54 48 48 51 53 55 57 59 63
304 304 304 303 303 302 302 302 302 302 302 302 302 302 302 301 299 297 297 301 305 306 305 301 297 293 293 295 297 299 302 308 313 318 318 314 309 303 297 290 286 283 283 283 282 282 283 288 293 294 293 289 292 322 26 48 64 80 86 81 73 57 23 2 356 6 36 66 76 79 80 81 81 81 80 77 70 61 50 45 44 46 51 57 61 65
305 304 304 303 303 302 302 302 303 303 303 303 303 302 302 301 300 300 302 306 307 304 301 298 295 293 294 295 297 300 308 315 319 320 320 319 317 313 308 304 296 289 281 280 281 285 293 308 322 328 329 330 339 5 34 43 52 62 71 75 75 66 39 12 2 9 32 57 68 74 79 83 87 89 89 84 77 69 58 48 41 38 41 50 59 66
304 304 303 303 303 303 303 303 303 303 303 303 303 302 301 301 301 303 305 307 306 302 298 297 297 297 298 299 303 309 318 322 322 321 322 321 320 317 313 311 304 296 283 272 267 266 268 319 8 18 21 13 9 11 23 36 46 53 58 64 68 65 52 26 19 26 46 58 63 65 67 74 82 88 93 89 84 77 69 57 46 37 33 41 51 63
304 303 302 303 303 303 303 303 304 303 302 302 302 301 301 302 304 306 307 306 303 300 298 299 300 301 302 305 312 321 330 328 326 324 325 324 323 320 316 315 312 305 292 273 255 244 231 213 53 42 38 33 28 22 17 28 44 56 58 54 53 55 53 41 37 43 56 63 66 67 67 69 74 79 87 89 88 84 77 67 54 41 31 37 50 63
304 303 302 302 302 303 303 303 303 302 301 301 301 300 301 303 306 309 309 307 304 302 300 301 303 305 309 315 322 330 334 332 329 327 327 327 324 321 319 319 318 314 305 291 276 258 244 222 81 53 43 37 33 30 23 20 35 58 64 48 39 37 46 49 50 53 60 63 65 67 68 70 71 74 81 88 90 89 84 75 63 47 31 38 54 69